2018-099AV (43801 NORAD) Tracking and Keplerian Element Data

This shows tracking and keplerian element data for the satellite.

Feedback or suggestion? Click here.




ElementValue
Catalog43801
Name2018-099AV
Epoch Orbit22467
Epoch Day14.17396406
Epoch Year2023
RAAN81.7855
Inclination97.5864
Eccentricity0.0009266
Argument of Perigee251.3686
Mean Anonmoly108.6535
Mean Motion15.00727939
Decay Rate0.00011861
L11 43801U 18099AV 23014.17396406 .00011861 00000+0 93867-3 0 9991
L22 43801 97.5864 81.7855 0009266 251.3686 108.6535 15.00727939224677



Live tracking and technical data element details for 2018-099AV (NORAD 43801). 2018-099AV can be tracked NOW for your location showing map with azimuth and elevation plus other details from your city location.







IsCatalogInMostPopularTable: catalog: 43801, numindb: 338
Update: records affected: 1



GetName: 43801 2018-099AV

Hit Count: updated at: Thu, 22 May 2025 03:55:54 GMT